Flag for Canada Weather past 2 weeks in Miramichi, New Brunswick, Canada

Now
25 °F

Snow. Ice fog.


Feels Like: 15 °F
Forecast: 17 / 25 °F
Wind: 9 mph from North

Location: Bathurst Airport

Current Time: Jan 31, 2015 at 2:04:49 PM

Latest Report: Jan 31, 2015 at 1:00 PM


Visibility: 0 mi

Pressure: 29.63 "Hg

Humidity: 86%

Dew point: 21 °F

Location of MiramichiLocation

Historic Weather in Miramichi — Graph

°F

Miramichi temperature yesterday

Maximum temperature yesterday: 19 °F (at 3:00 PM)
Minimum temperature yesterday: -8 °F (at 6:00 AM)
Average temperature yesterday: 7 °F

Past Weeks' High & Low Weather Summary

 TemperatureHumidityPressure
High43 °F (Jan 19, 12:00 PM)100% (Jan 19, 3:00 AM)30.45 "Hg (Jan 19, 3:00 AM)
Low-9 °F (Jan 26, 8:00 PM)36% (Jan 26, 4:00 PM)28.86 "Hg (Jan 25, 4:00 AM)
Average14 °F71%29.85 "Hg
* Reported Jan 16 1:00 PM — Jan 31 1:00 PM, Miramichi, Weather by CustomWeather, © 2014

Note: Actual official high and low records may vary slightly from our data, if they occured in-between our weather recording intervals... More about our weather records

Advertising

Miramichi weather history for previous 24 hours

 ConditionsComfort  
Time TempWeatherWind HumidityBarometerVisibility
1:00 PM
Jan 31
25 °FSnow. Ice fog.9 mph86%29.63 "Hg1 mi
12:00 PM23 °FLight snow. Ice fog.8 mph93%29.67 "Hg1 mi
11:00 AM21 °FSnow. Ice fog.8 mph93%29.70 "Hg1 mi
10:00 AM21 °FSnow. Ice fog.6 mph93%29.74 "Hg1 mi
9:00 AM19 °FSnow. Ice fog.8 mph93%29.75 "Hg1 mi
8:00 AM19 °FSnow. Ice fog.7 mph93%29.77 "Hg1 mi
7:00 AM19 °FLight snow. Overcast.6 mph93%29.78 "Hg2 mi
6:00 AM19 °FLight snow. Overcast.3 mph93%29.78 "Hg2 mi
5:00 AM19 °FLight snow. Overcast.2 mph93%29.81 "Hg2 mi
4:49 AM19 °FLight snow. Overcast.5 mph93%29.81 "Hg2 mi
4:00 AM19 °FLight snow. Overcast.3 mph86%29.82 "Hg3 mi
3:00 AM19 °FLight snow. Overcast.No wind86%29.83 "Hg3 mi
2:00 AM19 °FLight snow. Overcast.2 mph86%29.82 "Hg5 mi
1:00 AM18 °FLight snow. Overcast.2 mph93%29.83 "Hg8 mi
12:00 AM19 °FLight snow. Overcast.2 mph86%29.85 "Hg5 mi
11:00 PM
Jan 30
19 °FLight snow. Mostly cloudy.2 mph86%29.86 "Hg5 mi
10:00 PM19 °FLight snow. Mostly cloudy.2 mph86%29.87 "Hg3 mi
9:00 PM18 °FLight snow. Mostly cloudy.No wind93%29.87 "Hg3 mi
8:00 PM18 °FLight snow. Overcast.2 mph93%29.88 "Hg10 mi
7:00 PM19 °FLight snow. Overcast.No wind86%29.88 "Hg5 mi
6:00 PM19 °FLight snow. Overcast.2 mph86%29.88 "Hg12 mi
5:00 PM19 °FLight snow. Partly sunny.3 mph86%29.89 "Hg12 mi
4:00 PM19 °FSnow flurries. Low clouds.3 mph86%29.89 "Hg8 mi
3:00 PM19 °FSnow flurries. Low clouds.3 mph79%29.90 "Hg8 mi
2:00 PM18 °FLow clouds.2 mph86%29.92 "Hg12 mi
Weather by CustomWeather, © 2014

See weather overviewHow to use our weather pages